Location: Asheville, NC
(35.6000°N, 82.5500°W)
Time: 03:48:21
(UTC-05:00)

Vanguard 1 - Pass Details

Date: 07 December 2017
Orbit: 649 x 3834 km, 34.3° (Epoch: 20 January)

Event Time Altitude Azimuth Distance (km) Brightness Sun altitude
Rises 15:27:29 0° 278° (W) 5,561 14.4 17.0°
Reaches altitude 10° 15:31:53 10° 277° (W) 4,040 13.9 16.4°
Maximum altitude 15:41:17 67° 197° (SSW) 1,169 11.1 15.0°
Drops below altitude 10° 15:46:42 10° 115° (ESE) 2,388 11.9 14.2°
Sets 15:48:42 0° 112° (ESE) 3,161 12.4 13.9°
